Time,TemperatureF,DewpointF,PressureIn,WindDirection,WindDirectionDegrees,WindSpeedMPH,WindSpeedGustMPH,Humidity,HourlyPrecipIn,Conditions,Clouds,dailyrainin,SoftwareType,DateUTC
2013-09-09 00:06:00,72.9,72.0,30.00,SW,217,0.0,0.0,97,0.00,,,0.00,VWS V13.01,2013-09-09 05:06:00,
2013-09-09 00:13:00,72.7,71.8,30.00,SW,217,0.0,0.0,97,0.00,,,0.00,VWS V13.01,2013-09-09 05:13:00,
2013-09-09 00:22:00,72.7,72.1,30.00,SW,217,0.0,0.0,98,0.00,,,0.00,VWS V13.01,2013-09-09 05:22:00,
2013-09-09 00:28:00,72.6,72.0,30.00,SW,217,0.0,0.0,1,0.00,,,0.00,VWS V13.01,2013-09-09 05:28:00,
2013-09-09 00:34:00,72.6,72.0,30.00,SW,217,0.0,0.0,98,0.00,,,0.00,VWS V13.01,2013-09-09 05:34:00,
2013-09-09 00:42:00,72.4,72.1,30.00,SW,217,0.0,0.0,99,0.00,,,0.00,VWS V13.01,2013-09-09 05:42:00,
2013-09-09 00:50:00,72.4,72.1,30.01,SW,217,0.0,0.0,99,0.00,,,0.00,VWS V13.01,2013-09-09 05:50:00,
2013-09-09 00:58:00,72.2,71.9,30.01,SW,217,0.0,0.0,99,0.00,,,0.00,VWS V13.01,2013-09-09 05:58:00,
2013-09-09 01:06:00,72.2,71.9,30.01,SW,217,0.0,0.0,1,0.00,,,0.00,VWS V13.01,2013-09-09 06:06:00,
2013-09-09 01:13:00,72.2,71.9,30.01,SW,217,0.0,0.0,1,0.00,,,0.00,VWS V13.01,2013-09-09 06:13:00,
2013-09-09 06:55:00,70.3,70.3,30.04,SW,217,0.0,0.0,100,0.00,,,0.00,VWS V13.01,2013-09-09 11:55:00,
2013-09-09 07:03:00,70.3,70.3,30.04,SW,217,0.0,0.0,100,0.00,,,0.00,VWS V13.01,2013-09-09 12:03:00,
2013-09-09 07:11:00,70.5,70.5,30.04,SW,217,0.0,0.0,100,0.00,,,0.00,VWS V13.01,2013-09-09 12:11:00,
2013-09-09 07:19:00,71.0,71.0,30.04,SW,217,0.0,0.0,100,0.00,,,0.00,VWS V13.01,2013-09-09 12:19:00,
2013-09-09 07:27:00,71.3,71.3,30.05,SW,217,0.0,0.0,100,0.00,,,0.00,VWS V13.01,2013-09-09 12:27:00,
2013-09-09 07:36:00,71.5,71.5,30.05,SW,217,0.0,0.0,100,0.00,,,0.00,VWS V13.01,2013-09-09 12:36:00,
2013-09-09 07:43:00,71.9,71.9,30.05,SW,217,0.0,0.0,1,0.00,,,0.00,VWS V13.01,2013-09-09 12:43:00,
2013-09-09 07:52:00,72.6,71.7,30.05,SW,217,0.0,0.0,97,0.00,,,0.00,VWS V13.01,2013-09-09 12:52:00,
2013-09-09 07:58:00,73.3,71.9,30.05,SW,217,0.0,0.0,1,0.00,,,0.00,VWS V13.01,2013-09-09 12:58:00,
2013-09-09 08:04:00,74.0,71.5,30.05,SW,217,0.0,0.0,92,0.00,,,0.00,VWS V13.01,2013-09-09 13:04:00,
2013-09-09 08:12:00,74.5,71.1,30.05,SW,217,0.0,0.0,89,0.00,,,0.00,VWS V13.01,2013-09-09 13:12:00,
2013-09-09 08:20:00,75.0,70.2,30.06,SSW,206,0.0,0.0,85,0.00,,,0.00,VWS V13.01,2013-09-09 13:20:00,
2013-09-09 08:28:00,75.6,70.4,30.06,SSW,206,0.0,0.0,84,0.00,,,0.00,VWS V13.01,2013-09-09 13:28:00,
2013-09-09 08:36:00,75.9,69.7,30.06,SW,223,0.0,0.0,81,0.00,,,0.00,VWS V13.01,2013-09-09 13:36:00,
2013-09-09 08:43:00,76.5,70.2,30.07,SW,223,0.0,0.0,1,0.00,,,0.00,VWS V13.01,2013-09-09 13:43:00,
2013-09-09 08:52:00,77.0,70.7,30.07,SW,223,0.0,0.0,81,0.00,,,0.00,VWS V13.01,2013-09-09 13:52:00,
2013-09-09 08:58:00,77.4,70.8,30.07,SW,223,0.0,0.0,1,0.00,,,0.00,VWS V13.01,2013-09-09 13:58:00,
2013-09-09 09:04:00,77.8,71.1,30.07,SW,223,0.0,0.0,80,0.00,,,0.00,VWS V13.01,2013-09-09 14:04:00,
2013-09-09 09:12:00,78.3,70.9,30.07,SSW,212,0.0,0.0,78,0.00,,,0.00,VWS V13.01,2013-09-09 14:12:00,
2013-09-09 09:20:00,78.7,72.0,30.07,SW,223,0.0,0.0,80,0.00,,,0.00,VWS V13.01,2013-09-09 14:20:00,
2013-09-09 09:28:00,79.2,71.8,30.07,SW,223,0.0,0.0,78,0.00,,,0.00,VWS V13.01,2013-09-09 14:28:00,
2013-09-09 09:36:00,79.8,71.6,30.07,SW,223,0.0,0.0,76,0.00,,,0.00,VWS V13.01,2013-09-09 14:36:00,
2013-09-09 09:43:00,80.4,72.2,30.08,SW,223,0.0,0.0,1,0.00,,,0.00,VWS V13.01,2013-09-09 14:43:00,
2013-09-09 09:52:00,81.0,72.7,30.08,SW,223,0.0,0.0,76,0.00,,,0.00,VWS V13.01,2013-09-09 14:52:00,
2013-09-09 09:58:00,81.0,72.3,30.08,SW,223,0.0,0.0,1,0.00,,,0.00,VWS V13.01,2013-09-09 14:58:00,
2013-09-09 10:04:00,80.6,72.3,30.08,SW,223,0.0,0.0,76,0.00,,,0.00,VWS V13.01,2013-09-09 15:04:00,
2013-09-09 10:12:00,80.8,72.9,30.08,SW,223,0.0,0.0,1,0.00,,,0.00,VWS V13.01,2013-09-09 15:12:00,
2013-09-09 10:20:00,81.6,72.5,30.08,SW,219,0.0,0.0,74,0.00,,,0.00,VWS V13.01,2013-09-09 15:20:00,
2013-09-09 10:28:00,82.7,72.3,30.08,SW,219,0.0,0.0,1,0.00,,,0.00,VWS V13.01,2013-09-09 15:28:00,
2013-09-09 10:36:00,83.7,72.5,30.08,SW,219,0.0,0.0,1,0.00,,,0.00,VWS V13.01,2013-09-09 15:36:00,
2013-09-09 10:43:00,84.1,71.5,30.08,SW,219,0.0,0.0,1,0.00,,,0.00,VWS V13.01,2013-09-09 15:43:00,
2013-09-09 10:48:00,84.7,72.5,30.08,East,97,0.0,0.0,65,0.00,,,0.00,VWS V13.01,2013-09-09 15:48:00,
2013-09-09 10:56:00,84.7,72.1,30.08,East,96,0.0,0.0,66,0.00,,,0.00,VWS V13.01,2013-09-09 15:56:00,
2013-09-09 11:04:00,84.5,71.9,30.08,East,96,0.0,0.0,66,0.00,,CLR,0.00,VWS V13.01,2013-09-09 16:04:00,
2013-09-09 11:12:00,85.0,71.9,30.07,East,96,0.0,0.0,63,0.00,,CLR,0.00,VWS V13.01,2013-09-09 16:12:00,
2013-09-09 11:20:00,85.2,71.7,30.07,East,96,0.0,0.0,64,0.00,,CLR,0.00,VWS V13.01,2013-09-09 16:20:00,
2013-09-09 11:28:00,86.2,70.7,30.07,East,100,0.0,0.0,1,0.00,,CLR,0.00,VWS V13.01,2013-09-09 16:28:00,
2013-09-09 11:36:00,87.0,72.9,30.07,East,100,0.0,0.0,62,0.00,,CLR,0.00,VWS V13.01,2013-09-09 16:36:00,
2013-09-09 11:43:00,87.3,72.2,30.07,East,93,0.0,2.0,1,0.00,,CLR,0.00,VWS V13.01,2013-09-09 16:43:00,
2013-09-09 11:49:00,87.3,71.7,30.07,East,93,0.0,1.0,60,0.00,,CLR,0.00,VWS V13.01,2013-09-09 16:49:00,
2013-09-09 11:57:00,87.9,71.8,30.07,East,86,0.0,2.0,58,0.00,,CLR,0.00,VWS V13.01,2013-09-09 16:57:00,
2013-09-09 12:05:00,88.7,72.5,30.06,East,82,0.0,1.0,59,0.00,,CLR,0.00,VWS V13.01,2013-09-09 17:05:00,
2013-09-09 12:13:00,89.2,74.5,30.06,SSW,208,0.0,1.0,62,0.00,,CLR,0.00,VWS V13.01,2013-09-09 17:13:00,
2013-09-09 12:21:00,89.4,71.7,30.06,South,191,4.0,5.0,57,0.00,,CLR,0.00,VWS V13.01,2013-09-09 17:21:00,
2013-09-09 12:28:00,89.4,71.1,30.06,SSE,164,0.0,6.0,1,0.00,,CLR,0.00,VWS V13.01,2013-09-09 17:28:00,
2013-09-09 12:37:00,90.1,70.7,30.06,South,185,0.0,1.0,53,0.00,,CLR,0.00,VWS V13.01,2013-09-09 17:37:00,
2013-09-09 12:43:00,89.4,71.7,30.06,SSW,196,0.0,6.0,1,0.00,,CLR,0.00,VWS V13.01,2013-09-09 17:43:00,
2013-09-09 12:49:00,89.6,72.9,30.06,SW,232,0.0,2.0,58,0.00,,CLR,0.00,VWS V13.01,2013-09-09 17:49:00,
2013-09-09 12:57:00,89.8,70.4,30.06,SE,141,0.0,5.0,53,0.00,,CLR,0.00,VWS V13.01,2013-09-09 17:57:00,
2013-09-09 13:05:00,89.0,71.3,30.06,SW,226,0.0,3.0,56,0.00,,CLR,0.00,VWS V13.01,2013-09-09 18:05:00,
2013-09-09 13:13:00,88.7,70.5,30.05,SSW,203,0.0,5.0,55,0.00,,CLR,0.00,VWS V13.01,2013-09-09 18:13:00,
2013-09-09 13:21:00,89.0,70.2,30.05,SSW,205,0.0,3.0,54,0.00,,CLR,0.00,VWS V13.01,2013-09-09 18:21:00,
2013-09-09 13:28:00,89.0,70.8,30.05,SW,216,0.0,3.0,1,0.00,,CLR,0.00,VWS V13.01,2013-09-09 18:28:00,
2013-09-09 13:37:00,88.5,69.8,30.05,SSE,162,0.0,4.0,54,0.00,,FEW042,0.00,VWS V13.01,2013-09-09 18:37:00,
2013-09-09 13:43:00,89.0,68.7,30.05,SSW,202,0.0,5.0,1,0.00,,FEW042,0.00,VWS V13.01,2013-09-09 18:43:00,
2013-09-09 13:49:00,89.0,68.5,30.05,South,186,2.0,5.0,51,0.00,,FEW042,0.00,VWS V13.01,2013-09-09 18:49:00,
2013-09-09 13:57:00,88.5,69.6,30.05,SSW,213,2.0,5.0,54,0.00,,FEW042,0.00,VWS V13.01,2013-09-09 18:57:00,
2013-09-09 14:05:00,87.9,68.1,30.04,SW,224,0.0,4.0,52,0.00,,FEW065,0.00,VWS V13.01,2013-09-09 19:05:00,
2013-09-09 14:13:00,87.0,70.4,30.04,SW,224,0.0,4.0,58,0.00,,FEW065,0.00,VWS V13.01,2013-09-09 19:13:00,
2013-09-09 14:21:00,85.4,69.9,30.04,South,184,0.0,3.0,60,0.00,,FEW065,0.00,VWS V13.01,2013-09-09 19:21:00,
2013-09-09 14:28:00,84.1,72.2,30.04,North,10,0.0,3.0,1,0.00,,FEW065,0.00,VWS V13.01,2013-09-09 19:28:00,
2013-09-09 14:33:00,83.1,73.1,30.04,North,7,0.0,1.0,1,0.00,,FEW090,0.00,VWS V13.01,2013-09-09 19:33:00,
2013-09-09 14:41:00,81.4,73.5,30.04,NW,315,0.0,1.0,77,0.00,,FEW090,0.00,VWS V13.01,2013-09-09 19:41:00,
2013-09-09 14:49:00,79.6,70.6,30.04,SSE,161,0.0,10.0,1,0.00,,FEW090,0.00,VWS V13.01,2013-09-09 19:49:00,
2013-09-09 14:57:00,77.9,70.9,30.04,South,185,0.0,10.0,79,0.00,,FEW090,0.00,VWS V13.01,2013-09-09 19:57:00,
2013-09-09 15:05:00,76.8,70.9,30.04,South,186,0.0,1.0,1,0.00,,,0.00,VWS V13.01,2013-09-09 20:05:00,
2013-09-09 15:13:00,77.4,70.0,30.04,SSW,199,0.0,3.0,1,0.00,,,0.00,VWS V13.01,2013-09-09 20:13:00,
2013-09-09 15:21:00,77.6,71.7,30.04,South,191,4.0,4.0,82,0.00,,,0.00,VWS V13.01,2013-09-09 20:21:00,
2013-09-09 15:28:00,77.6,71.7,30.04,WSW,237,0.0,5.0,1,0.00,,,0.00,VWS V13.01,2013-09-09 20:28:00,
2013-09-09 15:33:00,77.4,71.8,30.04,SW,216,0.0,3.0,83,0.00,,CLR,0.00,VWS V13.01,2013-09-09 20:33:00,
2013-09-09 15:41:00,77.4,71.1,30.04,SSW,202,0.0,6.0,81,0.00,,CLR,0.00,VWS V13.01,2013-09-09 20:41:00,
2013-09-09 15:49:00,77.8,70.0,30.04,SSW,209,0.0,8.0,77,0.00,,CLR,0.00,VWS V13.01,2013-09-09 20:49:00,
2013-09-09 15:57:00,78.5,69.5,30.03,South,185,0.0,8.0,74,0.00,,CLR,0.00,VWS V13.01,2013-09-09 20:57:00,
2013-09-09 16:06:00,79.4,70.0,30.03,WSW,244,6.0,7.0,73,0.00,,CLR,0.00,VWS V13.01,2013-09-09 21:06:00,
2013-09-09 16:13:00,80.6,69.1,30.03,South,188,0.0,7.0,1,0.00,,CLR,0.00,VWS V13.01,2013-09-09 21:13:00,
2013-09-09 16:22:00,81.8,68.4,30.03,SSE,167,2.0,5.0,64,0.00,,CLR,0.00,VWS V13.01,2013-09-09 21:22:00,
2013-09-09 16:28:00,82.5,68.6,30.03,South,184,0.0,5.0,1,0.00,,CLR,0.00,VWS V13.01,2013-09-09 21:28:00,
2013-09-09 16:34:00,82.9,68.1,30.03,South,174,0.0,1.0,61,0.00,,CLR,0.00,VWS V13.01,2013-09-09 21:34:00,
2013-09-09 16:42:00,83.5,68.7,30.03,South,174,0.0,1.0,61,0.00,,CLR,0.00,VWS V13.01,2013-09-09 21:42:00,
2013-09-09 16:50:00,83.7,68.3,30.02,South,178,0.0,2.0,60,0.00,,CLR,0.00,VWS V13.01,2013-09-09 21:50:00,
2013-09-09 16:58:00,83.9,68.5,30.03,South,178,0.0,6.0,60,0.00,,CLR,0.00,VWS V13.01,2013-09-09 21:58:00,
2013-09-09 17:06:00,83.9,68.5,30.03,SW,226,0.0,1.0,60,0.00,,CLR,0.00,VWS V13.01,2013-09-09 22:06:00,
2013-09-09 17:13:00,83.9,70.0,30.03,SW,232,0.0,3.0,1,0.00,,CLR,0.00,VWS V13.01,2013-09-09 22:13:00,
2013-09-09 17:22:00,83.3,70.3,30.03,SSW,210,0.0,2.0,65,0.00,,CLR,0.00,VWS V13.01,2013-09-09 22:22:00,
2013-09-09 17:28:00,82.7,71.1,30.03,SW,215,0.0,3.0,1,0.00,,CLR,0.00,VWS V13.01,2013-09-09 22:28:00,
2013-09-09 17:34:00,82.5,71.3,30.03,SW,216,0.0,1.0,69,0.00,,CLR,0.00,VWS V13.01,2013-09-09 22:34:00,
2013-09-09 17:42:00,82.1,71.8,30.03,SSW,192,0.0,2.0,71,0.00,,CLR,0.00,VWS V13.01,2013-09-09 22:42:00,
2013-09-09 17:50:00,82.0,72.1,30.03,SSW,213,0.0,4.0,72,0.00,,CLR,0.00,VWS V13.01,2013-09-09 22:50:00,
2013-09-09 17:58:00,81.8,71.9,30.03,SSW,213,0.0,4.0,72,0.00,,CLR,0.00,VWS V13.01,2013-09-09 22:58:00,
2013-09-09 18:06:00,81.8,72.3,30.03,SSW,213,0.0,0.0,73,0.00,,FEW110,0.00,VWS V13.01,2013-09-09 23:06:00,
2013-09-09 18:13:00,81.4,71.9,30.02,SSW,213,0.0,0.0,1,0.00,,FEW110,0.00,VWS V13.01,2013-09-09 23:13:00,
2013-09-09 18:22:00,81.0,72.7,30.02,SSW,213,0.0,0.0,76,0.00,,FEW110,0.00,VWS V13.01,2013-09-09 23:22:00,
2013-09-09 18:28:00,81.0,73.1,30.03,SSW,213,0.0,0.0,1,0.00,,FEW110,0.00,VWS V13.01,2013-09-09 23:28:00,
2013-09-09 18:34:00,80.8,72.9,30.03,SSW,213,0.0,0.0,77,0.00,,FEW110,0.00,VWS V13.01,2013-09-09 23:34:00,
2013-09-09 18:42:00,80.4,72.9,30.03,SSW,213,0.0,0.0,78,0.00,,FEW110,0.00,VWS V13.01,2013-09-09 23:42:00,
2013-09-09 18:50:00,80.0,72.5,30.03,SW,219,0.0,0.0,1,0.00,,FEW110,0.00,VWS V13.01,2013-09-09 23:50:00,
2013-09-09 18:58:00,79.6,72.1,30.04,SW,219,0.0,0.0,1,0.00,,FEW110,0.00,VWS V13.01,2013-09-09 23:58:00,
2013-09-09 19:06:00,79.2,72.0,30.04,SW,219,0.0,0.0,1,0.00,,CLR,0.00,VWS V13.01,2013-09-10 00:06:00,
2013-09-09 19:13:00,78.9,72.2,30.04,SW,219,0.0,0.0,1,0.00,,CLR,0.00,VWS V13.01,2013-09-10 00:13:00,
2013-09-09 19:18:00,78.7,72.0,30.04,SW,219,0.0,0.0,1,0.00,,CLR,0.00,VWS V13.01,2013-09-10 00:18:00,
2013-09-09 19:26:00,78.3,72.4,30.04,SW,219,0.0,0.0,1,0.00,,CLR,0.00,VWS V13.01,2013-09-10 00:26:00,
2013-09-09 19:34:00,77.9,72.3,30.05,SW,219,0.0,0.0,83,0.00,,CLR,0.00,VWS V13.01,2013-09-10 00:34:00,
2013-09-09 19:42:00,77.6,72.4,30.05,SW,219,0.0,0.0,83,0.00,,CLR,0.00,VWS V13.01,2013-09-10 00:42:00,
2013-09-09 19:50:00,77.4,72.5,30.05,SW,219,0.0,0.0,85,0.00,,CLR,0.00,VWS V13.01,2013-09-10 00:50:00,
2013-09-09 19:58:00,77.0,72.2,30.06,SW,219,0.0,0.0,1,0.00,,CLR,0.00,VWS V13.01,2013-09-10 00:58:00,
2013-09-09 20:06:00,76.8,71.9,30.06,SW,219,0.0,0.0,85,0.00,,SCT065,0.00,VWS V13.01,2013-09-10 01:06:00,
2013-09-09 20:13:00,76.8,71.9,30.06,SW,219,0.0,0.0,1,0.00,,SCT065,0.00,VWS V13.01,2013-09-10 01:13:00,
2013-09-09 20:19:00,76.8,72.3,30.06,SW,219,0.0,0.0,86,0.00,,SCT065,0.00,VWS V13.01,2013-09-10 01:19:00,
2013-09-09 20:27:00,76.6,72.4,30.06,SW,219,0.0,0.0,86,0.00,,SCT065,0.00,VWS V13.01,2013-09-10 01:27:00,
2013-09-09 20:35:00,76.5,72.3,30.06,SW,219,0.0,0.0,87,0.00,,SCT065,0.00,VWS V13.01,2013-09-10 01:35:00,
2013-09-09 20:43:00,76.1,72.3,30.06,SW,219,0.0,0.0,88,0.00,,SCT065,0.00,VWS V13.01,2013-09-10 01:43:00,
2013-09-09 20:51:00,75.9,72.4,30.06,SW,219,0.0,0.0,88,0.00,,SCT065,0.00,VWS V13.01,2013-09-10 01:51:00,
2013-09-09 20:58:00,75.7,71.9,30.06,SW,219,0.0,0.0,1,0.00,,SCT065,0.00,VWS V13.01,2013-09-10 01:58:00,
2013-09-09 21:07:00,75.6,71.8,30.06,SW,219,0.0,0.0,88,0.00,,CLR,0.00,VWS V13.01,2013-09-10 02:07:00,
2013-09-09 21:13:00,75.6,72.1,30.06,SW,219,0.0,0.0,1,0.00,,CLR,0.00,VWS V13.01,2013-09-10 02:13:00,
2013-09-09 21:19:00,75.4,71.9,30.06,SW,219,0.0,0.0,89,0.00,,CLR,0.00,VWS V13.01,2013-09-10 02:19:00,
2013-09-09 21:27:00,75.2,72.1,30.06,SW,219,0.0,0.0,90,0.00,,CLR,0.00,VWS V13.01,2013-09-10 02:27:00,
2013-09-09 21:35:00,75.0,71.9,30.07,SW,219,0.0,0.0,90,0.00,,CLR,0.00,VWS V13.01,2013-09-10 02:35:00,
2013-09-09 21:43:00,74.8,72.0,30.07,SW,219,0.0,0.0,91,0.00,,CLR,0.00,VWS V13.01,2013-09-10 02:43:00,
2013-09-09 21:51:00,74.7,71.9,30.07,SW,219,0.0,0.0,91,0.00,,CLR,0.00,VWS V13.01,2013-09-10 02:51:00,
2013-09-09 21:58:00,74.5,72.0,30.07,SW,219,0.0,0.0,1,0.00,,CLR,0.00,VWS V13.01,2013-09-10 02:58:00,
2013-09-09 22:07:00,74.3,71.8,30.07,SW,219,0.0,0.0,92,0.00,,,0.00,VWS V13.01,2013-09-10 03:07:00,
2013-09-09 22:13:00,74.3,71.9,30.07,SW,219,0.0,0.0,1,0.00,,,0.00,VWS V13.01,2013-09-10 03:13:00,
2013-09-09 22:19:00,74.1,71.9,30.07,SW,219,0.0,0.0,93,0.00,,,0.00,VWS V13.01,2013-09-10 03:19:00,
2013-09-09 22:27:00,74.0,72.2,30.07,SW,219,0.0,0.0,94,0.00,,,0.00,VWS V13.01,2013-09-10 03:27:00,
2013-09-09 22:35:00,73.8,72.3,30.08,SW,219,0.0,0.0,95,0.00,,,0.00,VWS V13.01,2013-09-10 03:35:00,
2013-09-09 22:43:00,73.8,72.3,30.08,SW,219,0.0,0.0,95,0.00,,,0.00,VWS V13.01,2013-09-10 03:43:00,
2013-09-09 22:51:00,73.6,72.1,30.08,SW,219,0.0,0.0,95,0.00,,,0.00,VWS V13.01,2013-09-10 03:51:00,
2013-09-09 22:58:00,73.4,72.2,30.09,SW,219,0.0,0.0,1,0.00,,,0.00,VWS V13.01,2013-09-10 03:58:00,
2013-09-09 23:03:00,73.4,72.2,30.09,SW,219,0.0,0.0,1,0.00,,,0.00,VWS V13.01,2013-09-10 04:03:00,
2013-09-09 23:07:00,73.4,72.2,30.09,SW,219,0.0,0.0,1,0.00,,,0.00,VWS V13.01,2013-09-10 04:07:00,
2013-09-09 23:13:00,73.4,72.2,30.09,SW,219,0.0,0.0,1,0.00,,,0.00,VWS V13.01,2013-09-10 04:13:00,
2013-09-09 23:19:00,73.3,72.1,30.09,SW,219,0.0,0.0,1,0.00,,,0.00,VWS V13.01,2013-09-10 04:19:00,
2013-09-09 23:23:00,73.3,72.1,30.09,SW,219,0.0,0.0,96,0.00,,,0.00,VWS V13.01,2013-09-10 04:23:00,
2013-09-09 23:27:00,73.3,72.1,30.09,SW,219,0.0,0.0,96,0.00,,,0.00,VWS V13.01,2013-09-10 04:27:00,
2013-09-09 23:35:00,73.4,72.2,30.09,SW,219,0.0,0.0,96,0.00,,,0.00,VWS V13.01,2013-09-10 04:35:00,
2013-09-09 23:43:00,73.4,72.2,30.09,SW,219,0.0,0.0,1,0.00,,,0.00,VWS V13.01,2013-09-10 04:43:00,
2013-09-09 23:51:00,73.6,72.4,30.09,SW,219,0.0,0.0,96,0.00,,,0.00,VWS V13.01,2013-09-10 04:51:00,
2013-09-09 23:58:00,73.6,72.4,30.09,SW,219,0.0,0.0,96,0.00,,,0.00,VWS V13.01,2013-09-10 04:58:00,